User: anonymous   Login
Location: Azul
(36.7830°S, 59.8500°W)
Time: 01:44:45
(UTC-03:00)
Language:

KKS-1 - Orbit

View from above orbital plane
View from above orbital plane
View from above satellite
View from above satellite

Ground track
Ground track

The orbit data is extracted from the following two-line orbital elements,

1 33499U 09002H   21295.53953758  .00000217  00000-0  39620-4 0  9997
2 33499  98.2474 168.2077 0009170   3.8804 356.2474 14.75718028685154
Epoch (UTC): 22 October 2021 12:56:56
Eccentricity: 0.0009170
inclination: 98.2474°
perigee height: 636 km
apogee height: 649 km
right ascension of ascending node: 168.2077°
argument of perigee: 3.8804°
revolutions per day: 14.75718028
mean anomaly at epoch: 356.2474°
orbit number at epoch: 68515

The dashed part of the orbit path shows where the satellite is in the earth's shadow,  

DLR